Weather in Ulyanovsk

Russia / Ulyanovsk Oblast     54˚19′00″N   48˚24′09″E
temp.,
°C
wind,
m/s
gust,
m/s
humid.,
%
clouds,
%
prec.,
mm/h
press.,
hPa
HPBL,
m
2 december, wed
wed201:00−9˚sse468235 0.0 1046272
04:00−9˚sse458231 0.0 1045257
07:00−10˚sse358349 0.0 1045248
10:00−10˚s358343 0.0 1045252
13:00−9˚sse237956 0.0 1045295
16:00−9˚sse237955 0.0 1044235
19:00−10˚sse238088 0.0 1044217
22:00−9˚s337694 0.0 1044229
3 december, thu
thu301:00−10˚ssw237699 0.0 1044206
04:00−10˚sw237896 0.0 1044189
07:00−11˚ssw227950 0.0 1043171
10:00−10˚ssw117633 0.0 1044161
13:00−9˚s01740 0.0 1043197
16:00−9˚se12760 0.0 1043165
19:00−10˚ssw117724 0.0 1043120
22:00−10˚sw017212 0.0 1043119
4 december, fri
fri401:00−10˚ssw11730 0.0 1043126
04:00−10˚se11758 0.0 1044108
07:00−10˚ese017613 0.0 1043106
10:00−10˚ese11757 0.0 1044101
13:00−9˚e11750 0.0 1044150
16:00−9˚e22780 0.0 1044131
19:00−9˚ese22820 0.0 1044128
22:00−9˚ese22810 0.0 1044118
5 december, sat
sat501:00−9˚se22805 0.0 104598
04:00−10˚ese11814 0.0 104585
07:00−10˚ese22809 0.0 1045116
10:00−10˚e22745 0.0 1045115
13:00−9˚e22660 0.0 1045168
16:00−9˚ene22630 0.0 1045153
19:00−9˚ene23700 0.0 1044166
22:00−10˚ene33730 0.0 1044162
6 december, sun
sun601:00−10˚ene33740 0.0 1044162
04:00−10˚ene34760 0.0 1044169
07:00−11˚e33780 0.0 1044165
10:00−11˚e33810 0.0 1045171
13:00−10˚e22800 0.0 1045206
16:00−10˚e22810 0.0 1044181
19:00−11˚e22830 0.0 1044157
22:00−10˚e12840 0.0 1045126